Location: Biharia
(46.4333°N, 22.8000°E)
Time: 00:23:45
(UTC+00:00)

FENGYUN 1C DEB - Pass Details

Date: 15 August 2022
Orbit: 796 x 915 km, 98.9° (Epoch: 28 September)

Event Time Altitude Azimuth Distance (km) Brightness Sun altitude
Rises 22:16:29 0° 25° (NNE) 3,426 ? -29.6°
Reaches altitude 10° 22:19:22 10° 39° (NE) 2,464 ? -29.7°
Enters shadow 22:22:59 23° 80° (E) 1,684 ? -29.7°
